Location: Pasadena, ca
(34.1243°N, 118.1037°W)
Time: 06:08:32
(UTC-08:00)

Hubble Space Telescope - Pass Details

Date: 18 November 2017
Orbit: 537 x 541 km, 28.5° (Epoch: 20 November)

Event Time Altitude Azimuth Distance (km) Brightness Sun altitude
Exits shadow 04:39:35 23° 192° (SSW) 1,174 2.4 -22.4°
Maximum altitude 04:40:42 26° 166° (SSE) 1,082 2.5 -22.2°
Drops below altitude 10° 04:44:07 10° 110° (ESE) 1,781 4.5 -21.5°
Sets 04:46:39 0° 97° (E) 2,673 5.9 -21.0°
